Regional Weather Roundup
Issued by NWS Wilmington, NC

Home | Current Version | Previous Version | Text Only | Print | Product List | Glossary On
Versions: 1 2 3 4 5 6 7 8 9 10 11 12 13 14 15 16 17 18 19 20 21 22 23 24 25 26 27 28 29 30 31 32 33 34 35 36 37 38 39 40 41 42 43 44 45 46 47 48 49 50
390
ASUS42 KILM 051013
RWRILM
RWRILM
REGIONAL HOURLY WEATHER ROUNDUP
NATIONAL WEATHER SERVICE WILMINGTON NC
500 AM EST MON DEC 05 2016

NOTE: "FAIR" INDICATES FEW OR NO CLOUDS BELOW 12,000 FEET WITH NO
SIGNIFICANT WEATHER AND/OR OBSTRUCTIONS TO VISIBILITY.

...............WFO WILMINGTON COUNTY WARNING AREA...............

......COASTAL NC AND SC COUNTIES......

CITY           SKY/WX    TMP DP  RH WIND       PRES   REMARKS
WILMINGTON     HVY RAIN  62  62 100 NW23G32   29.94R FOG
N MYRTLE BEACH LGT RAIN  56  56 100 NW10      29.95R
MYRTLE BEACH   CLOUDY    55  50  82 NW10      29.98R

......INLAND NC AND SC COUNTIES.......

CITY           SKY/WX    TMP DP  RH WIND       PRES   REMARKS
LUMBERTON      LGT RAIN  46  45  96 N8        29.98R
ELIZABETHTOWN  RAIN      46  46 100 NW3       29.96S
WHITEVILLE     HVY RAIN  49  48  97 N5        29.95F
FLORENCE       RAIN      45  45 100 N8        29.99R FOG
DARLINGTON     LGT RAIN  44  43  96 N8        30.00R
KINGSTREE      RAIN      46  45  93 CALM      29.98S
HARTSVILLE     CLOUDY    41  41 100 N6        29.98S
BENNETTSVILLE  RAIN      46  45  93 N6        29.99S
CONWAY         LGT RAIN  46  46 100 CALM      29.97S
GEORGETOWN     NOT AVBL
MARION         HVY RAIN  45  45 100 NW6       29.99R

....................REST OF NORTH CAROLINA......................

.........EASTERN NC.........

CITY           SKY/WX    TMP DP  RH WIND       PRES   REMARKS
CAPE HATTERAS  RAIN      64  63  96 SW16G22   29.93F FOG
JACKSONVILLE   HVY RAIN  51  51 100 W20G28    29.96R FOG
MOREHEAD CITY  RAIN      63  63 100 S7        29.92F FOG
KENANSVILLE    RAIN      46  46 100 N5        29.96R FOG
NEW BERN       HVY RAIN  51  50  96 NE6       29.92F FOG
ELIZABETH CITY LGT RAIN  48  47  96 NW10      29.98R FOG

.........CENTRAL NC.........

CITY           SKY/WX    TMP DP  RH WIND       PRES   REMARKS
RALEIGH DURHAM CLOUDY    42  41  96 VRB3      30.01S
ROCKY MOUNT    LGT RAIN  43  43 100 N8        30.00R FOG
ROANOKE RAPIDS NOT AVBL
FAYETTEVILLE   LGT RAIN  45  43  93 N8        29.99R
HOFFMAN        LGT RAIN  43  42  95 N7        29.99S

.........WESTERN NC.........

CITY           SKY/WX    TMP DP  RH WIND       PRES   REMARKS
CHARLOTTE      CLOUDY    43  41  93 NE3       30.00F
GREENSBORO     CLOUDY    42  41  96 N5        30.00R
HICKORY        NOT AVBL
BOONE          NOT AVBL
ASHEVILLE      NOT AVBL

.....................REST OF SOUTH CAROLINA.....................

.........EASTERN SC.........

CITY           SKY/WX    TMP DP  RH WIND       PRES   REMARKS
CHARLESTON     LGT RAIN  59  56  89 NW8       29.97R
BEAUFORT MCAS  LGT RAIN  59  58  96 NW5       29.97S
HILTON HEAD    LGT RAIN  68  66  94 S12       29.97S

.........CENTRAL SC.........

CITY           SKY/WX    TMP DP  RH WIND       PRES   REMARKS
COLUMBIA       LGT RAIN  46  43  89 N9        30.01R
ORANGEBURG     CLOUDY    47  45  93 CALM      29.96F
SUMTER SHAW    LGT RAIN  45  44  94 N6        29.96S

.........WESTERN SC.........

CITY           SKY/WX    TMP DP  RH WIND       PRES   REMARKS
GREENVILLE     NOT AVBL
ROCK HILL      CLOUDY    43  41  93 NE5       30.00R
ANDERSON       CLOUDY    44  41  89 E3        29.97F
CLEMSON        NOT AVBL
GREENWOOD      CLOUDY    42  40  92 CALM      30.01F


...................COASTAL AND OFFSHORE REPORTS..................

................LOCAL PIERS AND NC RESERVE................


STATION/POSITION TIME  SKY/WX   TEMP    WIND        PRES    VSBY
                                AIR SEA DIR/SP/G
                 (UTC)          (F)     (DEG/KT/KT) (MB)    (MI)
JOHNY MRCER PIER 0948            64 62  200/ 17/ 18 1010.8F
NC RESRV MASNBRO 0845            62     230/  4     1012.0
OCEAN CREST PIER NOT AVBL
SPRINGMAID  PIER NOT AVBL


................COASTAL AND OFFSHORE BUOYS................


STATION/POSITION TIME  SKY/WX   TEMP    WIND        PRES    VSBY
                                AIR SEA DIR/SP/G
                 (UTC)          (F)     (DEG/KT/KT) (MB)    (MI)
DIMNDSHOAL 41025 0950            69 75  210/ 27/ 31 1013.3F
WVE H/P(F/S)=  5/ 8 SWL H/P/D(F/S/D)=  2/ 60/ 8

CAPE LOOKOUT     1000            64     210/  8/ 10 1013.0F
ONSLOW BAY 41036 NOT AVBL
ONSLOW BAY 41064 0908            69 73  200/ 23/ 29 1013.3F
ONSLOW BAY 41159 NOT AVBL
5SE WRITBC 41038 0908            62 63  190/ 16/ 21 1012.2F
MASNBO INL 41110 0959               63                N/A
WVE H/P(F/S)=  6/ 6

WILM HARBR 41108 0956               62                N/A
WVE H/P(F/S)=  6/ 7

27SE WRITB 41037 0908            71 68  190/ 21/ 29 1012.7F
FRYING PAN 41013 1000            74 74  200/ 25/ 33 1013.3
SUNST NRSH 41024 0908            65 60  220/ 17/ 23 1012.5F
CAPRS NRSH 41029 NOT AVBL
EDISTO     41004 0950            75 74  210/ 19/ 23 1013.6R
WVE H/P(F/S)=  8/ 7 SWL H/P/D(F/S/D)=  2/140/10



..........OFFSHORE BUOYS BEYOND 100 NM OFFSHORE...........
.....IN A TRIANGLE---HAT TO BERMUDA TO BAHAMAS TO HAT.....


STATION/POSITION TIME  SKY/WX   TEMP    WIND        PRES    VSBY
                                AIR SEA DIR/SP/G
                 (UTC)          (F)     (DEG/KT/KT) (MB)    (MI)
150E HAT   41001 NOT AVBL
W BERMUDA  41048 0950            66 73  330/  6/  8 1019.8R
WVE H/P(F/S)=  8/10 SWL H/P/D(F/S/D)=  8/360/10

ATLANTIC S 41049 0950            71 76   10/ 14/ 19 1017.5R
WVE H/P(F/S)= 10/11 SWL H/P/D(F/S/D)=  8/330/11

E BAHAMAS  41046 1000            74 78   50/ 12/ 16 1018.0
NE BAHAMAS 41047 1000            72 78   90/  6/ 10 1019.0
120E CANVRL41010 NOT AVBL

END




USA.gov is the U.S. government's official web portal to all federal, state and local government web resources and services.